Flag for Germany Weather past 2 weeks in Waren (Müritz), Mecklenburg-Western Pomerania, Germany

Now
41 °F

Sprinkles. Passing clouds.


Feels Like: 33 °F
Forecast: 37 / 40 °F
Wind: 15 mph from West

Location: Laage

Current Time: Dec 19, 2014 at 10:15:18 PM

Latest Report: Dec 19, 2014 at 9:20 PM


Visibility: N/A

Pressure: 29.71 "Hg

Humidity: 87%

Dew point: 37 °F

Location of Waren (Müritz)Location

Historic Weather in Waren (Müritz) — Graph

°F

Waren (Müritz) temperature yesterday

Maximum temperature yesterday: 52 °F (at 2:20 PM)
Minimum temperature yesterday: 37 °F (at 12:20 AM)
Average temperature yesterday: 48 °F

Past Weeks' High & Low Weather Summary

 TemperatureHumidityPressure
High52 °F (Dec 18, 2:20 PM)100% (Dec 5, 9:20 AM)30.30 "Hg (Dec 5, 9:20 AM)
Low28 °F (Dec 6, 9:20 PM)70% (Dec 10, 7:20 AM)29.18 "Hg (Dec 12, 3:20 PM)
Average38 °F91%29.82 "Hg
* Reported Dec 4 8:20 PM — Dec 19 8:20 PM, Waren (Müritz), Weather by CustomWeather, © 2014

Note: Actual official high and low records may vary slightly from our data, if they occured in-between our weather recording intervals... More about our weather records

Advertising

Waren (Müritz) weather history for previous 24 hours

 ConditionsComfort  
Time TempWeatherWind HumidityBarometerVisibility
8:20 PM
Dec 19
43 °FPassing clouds.20 mph71%29.71 "HgN/A
7:20 PM43 °FPassing clouds.15 mph81%29.68 "HgN/A
6:20 PM43 °FPassing clouds.16 mph81%29.68 "HgN/A
5:20 PM45 °FPartly cloudy.15 mph81%29.65 "HgN/A
4:20 PM46 °FSprinkles. Passing clouds.15 mph82%29.62 "HgN/A
3:20 PM46 °FBroken clouds.15 mph87%29.59 "HgN/A
2:20 PM48 °FBroken clouds.15 mph87%29.59 "HgN/A
1:20 PM48 °FPartly sunny.12 mph94%29.56 "HgN/A
12:20 PM48 °FLight rain. Partly sunny.14 mph94%29.56 "Hg5 mi
11:50 AM50 °FLight rain. Partly sunny.20 mph88%29.53 "Hg4 mi
11:20 AM50 °FHeavy rain. Fog.21 mph94%29.53 "Hg2 mi
10:20 AM52 °FRain. Broken clouds.15 mph94%29.53 "Hg5 mi
9:20 AM52 °FRain. Broken clouds.15 mph94%29.53 "Hg5 mi
8:20 AM52 °FRain. Passing clouds.15 mph94%29.56 "Hg6 mi
7:20 AM52 °FPassing clouds.15 mph94%29.56 "Hg4 mi
6:20 AM52 °FDrizzle. Fog.13 mph100%29.56 "Hg3 mi
5:20 AM52 °FPartly cloudy.13 mph100%29.59 "Hg4 mi
4:20 AM52 °FPartly cloudy.13 mph100%29.59 "Hg4 mi
3:20 AM52 °FPassing clouds.13 mph100%29.59 "Hg5 mi
2:20 AM52 °FPassing clouds.16 mph94%29.59 "HgN/A
1:20 AM52 °FPassing clouds.16 mph100%29.56 "Hg4 mi
12:20 AM52 °FPartly cloudy.14 mph100%29.56 "Hg4 mi
11:20 PM
Dec 18
52 °FPassing clouds.15 mph100%29.56 "Hg4 mi
10:20 PM52 °FPassing clouds.17 mph100%29.56 "Hg3 mi
Weather by CustomWeather, © 2014

See weather overviewHow to use our weather pages